RH
59 56 53 51 54 56 58 58 57 57 57 56 51 46 43 46 49 49 49 48 50 52 57 62 61 58 58 65 70 68 63 59 56 53 52 53 56 58 57 53 49 44 40 41 44 43 41 42 45 49 51 50 50 51 52 53 54 52 50 50 50 51 52 52 51 50 50 50 52 56 60 69 78 84 89 89 88 93 100 100 93 85 81 82 76 64 48 26 17 25 27 29 33 32 37 49 56
44 43 44 45 46 47 50 54 54 55 54 54 52 48 45 47 48 48 47 45 45 46 48 51 52 51 50 54 60 62 59 56 56 54 53 54 55 58 60 59 57 52 48 47 48 49 50 52 53 54 55 55 56 56 56 58 60 61 61 60 60 61 60 60 58 55 53 54 55 60 66 71 76 84 91 94 96 98 95 87 81 80 80 70 51 32 20 14 19 26 29 32 33 36 47 51 55
33 33 34 36 39 40 42 45 47 48 48 49 49 48 46 45 46 48 48 45 41 40 40 39 42 46 47 49 52 54 54 53 52 50 50 50 51 53 54 56 56 56 54 52 52 55 58 62 64 62 59 60 60 60 62 64 67 70 72 73 74 73 70 68 64 61 58 57 60 66 72 74 79 84 86 86 86 86 82 78 78 77 64 42 25 15 12 18 26 30 32 32 33 44 52 50 55
25 25 26 28 30 32 35 36 37 38 38 41 43 44 44 43 43 45 47 44 38 35 34 32 33 37 41 43 45 48 48 47 48 48 49 48 49 51 52 54 56 58 58 56 55 56 59 64 69 67 64 63 64 65 69 74 79 82 82 81 80 79 77 73 70 67 65 64 66 70 75 80 83 83 83 83 81 80 79 77 70 55 35 22 14 11 18 27 32 32 32 32 36 44 50 51 54
18 19 20 21 22 23 26 28 29 28 30 33 35 36 38 38 38 39 40 38 35 31 29 28 28 31 35 38 41 45 45 45 46 46 47 48 48 50 54 58 63 65 62 59 59 61 59 58 61 63 64 67 69 70 73 80 87 88 86 83 82 81 79 75 74 72 71 69 69 76 82 86 87 87 87 80 73 70 67 57 43 29 18 14 11 17 29 33 33 32 32 36 39 40 46 51 54
15 15 15 17 16 17 19 20 22 22 24 26 27 29 30 31 31 32 32 31 29 27 25 24 24 26 30 35 40 43 43 43 43 41 42 45 48 51 56 62 69 70 65 64 65 66 59 51 49 52 58 64 66 69 73 79 83 86 88 87 85 83 81 78 75 73 71 70 75 85 90 93 94 89 76 61 53 48 41 31 22 15 13 12 16 29 36 34 32 33 35 38 40 41 47 52 64
17 15 15 14 14 15 16 17 18 19 19 20 21 23 24 25 25 25 25 25 23 22 21 21 20 21 23 26 32 37 38 39 38 37 38 41 46 52 56 60 62 60 61 66 69 65 55 46 43 43 48 53 58 66 71 75 80 87 90 89 85 81 80 76 72 70 71 77 87 95 97 92 81 65 49 39 34 29 22 17 13 12 13 16 26 38 38 34 33 35 38 40 43 46 52 60 81
19 19 17 16 15 15 15 17 17 17 17 16 17 18 19 19 20 20 20 20 19 19 17 17 16 16 17 18 22 27 30 33 34 35 39 45 52 62 69 67 60 58 64 69 68 62 51 44 41 39 41 46 54 61 68 75 81 83 81 77 74 73 72 70 69 75 83 92 95 92 83 66 49 38 30 26 21 17 14 12 12 13 17 26 39 43 39 35 33 36 39 42 47 55 65 76 92
17 18 19 19 19 19 19 19 18 18 17 17 16 15 16 16 16 17 17 17 16 16 15 14 13 13 13 13 15 17 22 28 34 41 49 58 67 76 80 76 71 73 77 75 68 58 48 43 40 37 38 43 49 55 62 68 69 65 62 61 64 67 68 70 75 83 86 84 75 62 48 36 27 23 19 16 13 13 13 13 14 17 26 38 46 43 39 34 30 34 37 44 56 72 84 89 91
13 14 15 18 20 22 24 24 23 22 21 21 19 16 15 14 15 15 15 15 15 15 14 14 13 13 12 12 13 13 17 21 30 40 50 61 70 75 76 75 74 73 71 66 58 50 44 40 37 35 36 38 41 46 50 50 47 45 44 48 53 56 58 61 62 62 57 49 40 31 25 20 17 15 13 13 13 14 14 16 20 28 38 44 46 43 40 32 26 32 39 53 75 92 95 94 86
12 12 12 13 15 19 23 26 27 28 28 26 23 19 17 16 16 16 15 15 15 15 15 15 15 14 14 13 13 13 14 16 20 27 34 42 50 54 55 56 54 52 49 47 44 40 37 36 33 31 30 31 33 34 34 33 31 30 30 32 33 34 35 35 34 31 27 24 21 18 16 14 13 13 13 14 15 16 19 25 32 40 45 46 47 45 38 28 27 38 50 71 94 102 97 90 73
14 14 13 13 13 15 18 22 25 28 30 30 27 24 22 20 19 18 17 16 16 16 15 16 16 15 15 15 15 14 15 15 16 17 20 23 26 29 30 31 31 32 32 31 30 28 27 26 26 25 24 25 25 24 23 22 21 20 19 19 19 19 19 19 19 18 17 15 14 14 14 14 14 14 15 18 20 25 32 36 40 44 45 48 48 43 34 27 32 50 65 79 91 90 81 70 55
15 15 15 15 15 14 15 16 18 20 23 26 25 25 25 24 23 22 20 19 18 17 17 16 16 16 16 17 16 16 16 15 16 15 16 16 17 18 19 19 19 19 19 19 18 18 18 17 18 18 18 18 17 17 16 15 15 15 14 14 14 14 15 15 15 14 14 14 15 15 15 17 18 20 22 26 31 38 43 40 42 45 44 45 45 39 31 28 42 62 71 73 74 67 59 55 49
18 17 17 17 18 17 16 15 14 14 15 16 17 18 20 22 24 24 23 22 21 20 19 18 18 18 18 18 18 18 18 18 18 18 17 17 17 16 16 16 16 16 15 15 15 15 15 15 16 16 16 15 15 15 14 15 14 14 14 14 14 14 15 15 16 16 16 16 16 17 21 28 31 32 31 32 40 44 46 47 49 48 42 39 37 34 30 33 51 68 68 65 63 55 55 58 52
23 22 21 20 20 20 19 18 17 16 15 13 13 13 13 15 18 20 22 22 23 23 22 22 21 21 21 20 21 20 20 21 20 20 20 19 18 18 18 18 18 17 17 17 17 17 17 17 17 17 17 16 16 16 16 16 15 16 16 16 16 17 18 18 19 18 18 19 19 23 31 41 42 40 37 36 42 48 56 61 57 50 41 34 29 30 34 41 56 67 64 58 58 54 59 63 57
26 26 25 25 24 24 22 20 19 18 16 15 14 13 13 12 12 13 15 17 20 23 25 26 25 25 25 24 24 24 24 23 23 22 22 21 21 20 20 20 20 20 20 20 20 20 20 20 19 19 19 18 18 18 18 18 17 18 18 19 20 21 21 20 20 20 20 20 22 31 39 45 43 42 44 40 44 56 66 64 58 50 38 27 26 33 40 45 56 63 59 55 58 56 57 59 56
28 29 29 29 29 27 25 22 20 18 17 17 16 15 15 14 13 13 12 13 14 17 22 25 27 28 27 27 27 27 28 27 26 25 24 24 23 23 22 23 23 23 23 23 23 23 22 22 22 21 21 21 21 20 20 20 20 20 21 22 22 23 22 21 21 21 22 21 28 39 45 46 43 46 50 50 54 59 59 54 51 42 30 26 30 37 44 49 57 60 55 55 61 58 56 56 53
30 30 31 32 31 29 25 22 20 19 19 18 17 16 15 15 15 15 14 13 12 13 16 19 24 28 30 30 30 30 30 28 28 27 27 27 26 25 25 25 25 25 26 25 25 24 25 24 23 24 23 23 22 22 22 22 22 22 22 23 23 23 21 21 21 21 24 28 38 47 50 47 43 49 57 61 61 53 45 41 37 30 27 34 38 43 49 52 56 62 60 62 66 58 54 53 50
33 32 33 34 33 29 25 23 21 20 19 18 17 16 15 15 15 15 15 15 14 13 13 15 18 22 26 29 30 31 31 30 29 28 28 28 27 27 27 27 27 26 25 25 26 25 25 26 26 26 25 25 24 24 23 23 23 23 23 23 23 22 21 21 20 23 29 38 52 55 51 44 41 54 63 62 54 44 37 33 29 25 31 43 50 55 59 58 61 67 66 75 75 55 47 48 51
35 35 37 37 33 29 26 24 22 20 19 18 17 16 16 15 15 15 15 15 15 13 13 14 15 17 19 21 24 26 28 29 28 27 27 27 26 26 26 25 24 24 25 23 23 24 25 25 26 26 25 25 25 24 24 23 23 23 23 23 22 22 22 21 21 27 33 41 53 50 42 37 46 65 66 55 45 38 34 31 28 25 36 54 64 71 78 77 75 74 71 81 79 54 43 45 58
37 38 39 38 33 30 28 25 23 21 19 18 17 16 16 15 15 15 15 16 15 15 15 15 17 18 19 20 20 20 21 22 21 22 22 22 22 22 22 22 22 21 21 22 22 22 24 24 24 25 25 25 24 24 24 24 23 23 23 22 22 21 21 21 23 30 32 33 36 32 27 32 57 72 58 49 44 40 39 33 25 30 47 61 65 74 89 92 85 83 82 84 77 53 41 46 71
38 39 38 36 33 31 28 25 23 21 19 18 17 16 15 15 15 15 16 17 17 17 18 20 23 25 26 25 24 23 23 20 18 17 18 19 19 19 19 17 18 18 17 18 19 20 21 22 23 23 23 24 25 24 23 23 23 23 23 22 21 21 21 21 23 25 25 24 23 21 22 37 60 61 48 51 51 47 45 31 26 41 54 56 57 64 81 95 95 94 87 79 67 47 39 54 88
37 37 35 33 31 29 26 24 22 21 20 18 17 16 16 17 17 18 19 20 22 23 26 29 32 33 32 30 29 27 25 22 19 18 19 21 21 22 28 32 32 34 37 35 32 34 34 31 28 27 27 28 27 25 23 24 23 23 24 23 21 21 20 20 20 20 20 19 18 20 27 36 42 44 51 58 50 45 40 29 35 48 53 57 62 62 73 88 93 91 79 65 52 39 42 60 87
34 33 31 30 28 27 25 23 22 21 20 19 19 19 20 21 22 24 25 27 29 31 33 35 36 36 34 32 31 30 25 22 20 20 22 23 23 25 42 72 85 82 83 83 81 81 80 70 54 44 38 34 34 31 29 27 27 28 25 23 21 21 20 20 19 18 18 17 18 21 26 28 29 43 57 51 36 34 33 34 45 50 55 65 69 68 72 79 79 76 66 55 43 37 43 54 76
29 29 28 27 26 26 24 23 22 21 22 23 24 26 26 25 26 28 29 32 35 36 36 37 38 37 36 34 33 31 25 21 20 22 24 23 23 21 28 59 88 100 100 97 99 99 99 95 85 79 65 52 45 38 33 28 27 26 22 20 20 20 19 18 18 18 18 18 19 21 23 27 34 43 43 32 28 32 34 40 48 52 60 64 65 67 67 67 64 58 52 46 38 36 45 63 88
26 26 25 26 26 26 25 24 25 27 32 34 33 35 33 30 31 34 36 38 40 41 40 40 39 37 36 34 32 28 23 22 23 24 24 22 22 21 21 33 56 89 107 103 103 102 102 102 102 95 71 51 39 28 24 22 21 20 18 19 19 19 19 18 18 18 18 18 19 21 23 27 32 33 28 26 30 32 36 43 49 55 61 63 67 68 64 59 52 46 43 39 35 41 60 85 101
24 24 25 28 30 32 31 33 37 39 43 45 43 42 38 35 38 41 43 43 43 43 42 41 39 37 34 31 29 26 24 25 24 23 24 22 21 20 22 27 30 52 79 84 82 81 87 92 90 71 41 28 23 17 18 17 16 17 17 18 18 18 18 18 18 18 19 19 20 21 23 26 28 27 26 28 34 39 46 52 56 61 62 64 68 68 63 55 46 41 37 35 42 61 85 100 102
26 28 34 39 45 50 49 50 53 51 52 53 50 48 45 42 44 47 46 45 45 43 42 39 37 35 32 31 29 28 28 26 24 24 23 22 24 22 21 25 22 23 32 37 36 36 43 49 46 34 21 18 17 15 17 17 17 17 17 18 17 18 18 19 19 19 19 20 22 24 25 26 27 29 34 42 50 56 61 63 62 61 57 53 52 53 50 44 39 36 38 51 71 89 99 101 100
34 40 51 60 66 75 74 68 64 59 59 59 56 56 53 51 50 50 49 48 46 44 42 38 36 34 32 32 30 30 28 26 25 24 25 25 22 22 20 19 20 19 17 17 16 16 17 19 19 19 18 17 16 17 17 16 17 16 17 17 17 19 19 20 20 19 22 23 26 27 28 32 39 48 57 63 66 66 65 59 55 52 48 42 38 38 37 36 36 42 61 82 95 100 99 100 102
51 57 73 82 86 94 93 82 73 67 67 64 59 59 59 56 54 52 52 51 49 46 42 38 36 34 33 32 31 30 29 27 26 24 26 24 25 39 43 38 34 32 33 36 37 38 35 28 21 17 18 18 17 17 17 16 17 16 17 18 18 19 20 21 21 22 24 28 31 36 44 54 64 72 75 75 72 68 60 50 47 46 43 38 37 38 36 38 42 57 85 100 100 101 99 99 98
70 75 90 98 98 103 101 92 84 77 73 67 59 57 58 57 54 53 53 53 49 45 42 38 36 34 33 33 31 31 30 28 26 27 26 27 54 80 80 82 85 77 78 82 83 85 84 71 51 34 24 21 21 19 18 17 16 17 18 18 19 22 24 24 25 32 40 46 52 60 70 77 83 88 87 84 76 64 52 44 43 43 40 38 39 41 41 47 53 62 81 89 89 88 85 82 79
81 87 97 101 103 104 99 91 86 80 74 67 59 55 55 55 52 50 51 50 47 44 40 38 35 34 34 33 33 32 30 29 27 26 25 41 84 98 82 91 103 99 98 101 102 102 102 100 89 74 54 38 32 25 20 21 20 20 20 22 27 29 27 32 46 63 72 74 75 80 87 91 97 100 95 88 76 62 52 43 39 39 39 38 40 45 47 52 58 61 64 69 72 71 67 63 61
77 84 90 93 97 98 91 84 80 74 69 64 58 54 53 52 50 47 47 45 43 40 38 36 34 34 34 33 33 31 30 28 27 27 30 56 97 101 86 93 97 96 97 96 102 103 99 101 100 98 90 79 67 46 28 24 23 23 28 35 41 41 42 61 83 90 87 84 84 88 94 99 102 101 94 85 76 65 55 44 38 39 38 35 38 47 50 50 56 60 57 57 60 60 56 51 52
68 71 76 79 84 88 83 77 72 67 63 59 54 52 50 49 46 44 42 41 39 37 35 34 34 33 32 32 30 29 29 26 25 30 39 63 93 100 95 99 101 100 100 95 97 100 97 98 99 100 102 101 97 77 50 35 35 41 53 64 68 69 79 93 99 93 89 87 86 90 98 102 100 94 88 81 73 65 57 47 40 39 38 35 34 40 46 48 52 54 51 49 51 49 46 48 53
63 64 69 72 76 81 80 74 67 62 59 55 50 48 47 45 42 40 39 37 35 34 32 32 32 31 29 28 27 26 25 24 23 24 30 40 59 80 89 97 105 100 99 103 98 97 100 99 99 100 100 100 101 95 81 72 74 79 85 92 94 96 101 101 98 96 95 89 87 93 101 103 96 86 80 74 69 64 57 50 41 36 35 31 30 33 38 44 48 48 46 46 46 47 48 52 51
58 60 65 70 73 76 77 71 62 57 54 49 46 43 42 40 38 36 34 33 31 30 29 29 28 27 26 24 24 23 21 22 21 20 22 18 29 69 96 99 100 95 97 105 101 97 101 102 101 101 101 99 99 100 97 96 98 98 99 102 103 102 100 98 97 97 91 86 90 98 103 101 90 77 72 68 65 62 57 52 45 38 33 29 28 29 31 36 42 44 43 45 48 50 51 50 40
54 57 61 67 71 72 72 65 56 50 47 44 41 38 36 34 32 30 29 28 27 26 25 24 24 23 22 22 21 21 20 20 20 18 20 17 17 51 94 105 98 98 102 102 101 100 100 102 103 103 103 99 98 99 98 100 101 101 99 97 96 92 90 90 89 88 88 91 96 100 101 94 81 72 67 63 61 60 55 51 46 42 36 33 30 28 27 28 31 34 36 43 52 51 45 38 28
55 58 60 62 66 67 64 58 51 44 42 40 37 34 32 29 27 25 24 23 22 22 21 20 21 20 19 20 19 19 20 20 21 20 19 21 15 22 65 103 103 99 103 97 97 101 100 103 102 102 105 100 97 100 100 101 101 100 98 94 90 83 81 83 82 85 90 94 97 97 95 87 77 71 66 63 59 57 54 49 45 44 39 36 34 32 30 27 25 25 27 38 51 46 33 28 25
54 55 56 57 59 60 56 51 46 40 37 37 33 30 28 25 23 22 21 20 19 19 19 19 19 19 18 18 19 18 21 21 21 22 19 19 19 14 31 77 103 102 102 99 97 101 100 102 102 102 104 100 98 101 101 102 102 101 101 100 96 88 83 83 83 84 88 93 96 97 94 86 80 76 69 62 55 53 53 49 44 43 41 38 36 36 34 30 28 26 25 35 45 39 28 27 30
47 49 51 53 53 52 49 45 40 35 33 32 29 26 24 23 21 20 18 17 18 19 20 19 18 19 18 19 20 20 22 24 24 24 24 20 20 19 14 44 93 105 100 101 98 100 101 100 101 102 102 101 99 100 100 101 102 101 101 101 101 98 91 85 82 81 84 91 97 99 98 93 85 76 69 60 54 53 53 52 50 47 43 39 37 37 34 32 31 30 30 32 36 34 30 31 33
39 42 45 47 46 45 43 38 33 30 29 27 25 23 21 22 22 20 17 17 20 21 20 20 21 21 22 23 25 25 24 27 30 26 27 25 21 25 17 29 84 108 99 102 101 99 103 101 101 101 100 101 101 101 100 101 102 102 101 100 101 105 100 90 84 82 84 92 99 100 100 100 89 74 67 62 60 60 57 56 56 52 47 42 40 37 34 34 34 35 35 33 33 35 34 34 32
32 35 38 39 39 38 37 33 29 27 26 24 23 20 20 24 25 21 18 19 22 22 21 22 25 26 26 29 28 27 26 26 31 28 27 30 25 28 23 25 75 108 99 97 101 100 102 101 102 102 100 101 103 102 100 100 101 101 101 100 99 102 99 92 91 92 90 92 99 101 100 101 94 82 75 70 70 72 67 62 60 55 49 44 41 40 37 37 37 37 38 35 34 35 36 34 31
29 30 31 33 33 32 31 29 25 24 23 22 21 20 24 30 29 24 22 23 24 23 23 24 28 30 30 32 30 27 27 25 27 28 28 30 28 30 28 25 57 97 105 101 101 101 103 102 101 101 100 101 102 103 101 100 101 101 100 99 97 96 93 90 95 100 96 89 92 98 100 100 98 91 84 79 82 86 79 71 65 58 49 44 46 46 43 40 39 39 40 38 37 37 37 36 33
29 28 27 28 28 27 27 24 23 23 21 21 23 23 30 35 30 26 25 25 26 25 24 26 29 31 30 30 30 27 27 26 26 29 28 30 29 28 31 28 34 61 83 92 98 102 102 102 102 101 101 102 101 101 101 99 99 101 100 97 98 98 95 93 97 102 99 92 91 96 99 100 100 97 92 91 93 91 81 73 68 59 50 48 52 53 49 44 41 41 42 41 40 38 39 38 37
29 27 26 26 26 25 24 23 22 22 20 22 26 29 36 38 29 26 27 26 26 25 25 26 27 29 30 28 28 27 25 25 25 27 27 27 29 28 30 32 28 33 42 56 82 101 103 103 102 101 101 101 101 100 101 100 99 100 99 97 99 101 98 95 97 101 101 97 95 97 99 99 100 100 98 97 94 86 78 72 67 62 57 56 56 55 52 47 44 43 44 45 43 41 41 42 43
29 27 27 26 26 25 24 23 22 21 24 27 30 34 37 35 29 27 28 26 26 26 24 25 26 27 28 27 27 25 24 25 24 25 26 25 27 28 29 30 30 33 32 34 52 75 94 105 101 101 103 100 100 100 100 101 101 99 97 97 99 100 100 96 95 97 100 100 98 95 94 94 96 99 98 96 91 84 78 73 71 71 68 64 59 55 51 48 46 46 46 46 44 42 42 42 45
29 28 29 28 26 26 24 24 24 25 30 34 33 34 35 33 29 26 27 26 25 25 24 24 25 25 26 26 26 25 24 24 23 23 23 24 26 27 29 28 29 36 41 43 41 44 74 105 104 99 102 99 99 101 102 102 101 99 95 92 92 91 92 92 95 97 98 99 99 94 92 91 94 98 99 97 94 88 82 77 78 80 76 69 61 54 50 48 46 47 46 46 44 42 41 40 41
31 31 30 28 26 27 28 29 29 30 35 38 32 31 33 31 28 26 26 26 24 25 25 24 24 25 26 26 25 25 24 23 24 23 22 24 26 26 28 29 29 33 41 53 59 52 64 93 105 105 103 102 101 99 99 101 101 101 98 92 88 83 79 80 86 94 97 98 100 99 95 95 99 102 103 102 100 93 87 84 85 86 83 76 68 60 54 49 45 45 44 44 44 42 41 40 39
33 31 28 28 28 30 34 34 33 35 38 36 30 29 31 29 27 26 25 25 25 24 23 24 24 24 25 26 25 25 24 23 22 22 22 23 25 26 27 29 30 31 37 47 62 68 67 70 79 88 93 96 101 102 102 104 103 101 101 101 98 89 82 81 84 90 95 98 100 100 98 99 103 104 102 100 98 92 86 86 88 88 87 81 73 65 57 52 47 44 44 44 44 44 44 43 44
33 30 28 30 34 36 38 36 35 37 37 34 29 28 29 29 27 25 25 25 24 23 24 23 22 23 24 24 23 22 23 24 24 24 24 22 27 33 29 29 33 34 36 38 43 57 73 81 80 80 81 79 82 90 94 95 99 99 97 100 104 101 97 95 95 96 98 100 101 100 99 100 99 95 92 90 87 82 80 81 82 83 84 81 74 67 60 54 50 47 47 47 47 49 51 51 53
31 30 32 38 42 42 39 37 37 37 35 31 27 26 28 29 27 25 26 25 23 24 23 21 22 23 24 23 24 25 23 21 20 19 20 20 30 42 36 29 34 36 36 37 35 38 55 80 97 102 97 79 66 69 71 70 76 79 79 81 88 98 102 102 101 101 101 101 101 99 98 95 88 80 78 77 75 74 75 76 75 76 77 75 70 66 61 56 52 50 50 51 54 58 61 65 69
33 38 45 49 48 43 39 38 37 35 33 30 26 27 29 27 26 25 24 23 24 23 20 23 25 23 24 25 23 21 20 29 35 31 35 35 32 44 55 49 39 34 35 41 43 39 37 52 79 99 103 88 71 66 64 63 63 61 64 66 66 75 86 96 102 102 101 101 101 100 97 90 82 75 74 75 76 76 76 76 75 74 73 71 68 63 60 58 55 53 53 57 64 70 76 82 85
47 55 59 55 48 43 40 39 38 35 32 30 28 28 28 27 26 24 24 24 22 21 23 25 23 23 24 21 22 37 57 76 84 80 85 74 43 37 58 68 57 41 34 36 39 39 36 40 53 70 81 81 78 77 73 71 67 62 60 57 59 72 88 98 102 101 101 101 101 101 98 93 87 82 81 82 81 79 78 78 75 73 71 68 65 62 61 61 60 62 67 74 82 88 94 95 87
64 66 61 54 47 42 41 39 37 35 32 32 29 27 27 26 25 24 24 23 22 23 25 22 24 26 21 23 47 81 98 100 97 98 104 96 74 57 50 48 53 48 35 30 32 35 37 40 43 52 60 62 69 80 80 71 64 59 54 55 71 92 102 103 101 100 100 101 101 101 100 99 96 93 91 90 88 85 84 84 80 77 75 71 71 72 71 73 77 81 87 94 100 101 97 89 77
72 66 57 53 48 42 40 38 36 34 33 32 28 26 27 25 24 25 23 23 24 24 23 25 27 21 22 48 82 98 97 93 95 99 97 96 99 98 77 49 37 37 36 33 34 35 38 43 43 43 44 43 52 72 76 68 64 62 58 66 87 103 103 101 100 100 101 100 101 101 100 100 100 99 99 99 98 97 97 99 95 89 85 85 88 90 91 94 97 99 101 104 103 96 86 76 69
68 62 55 51 47 42 40 38 35 34 33 30 27 25 26 24 25 24 22 25 25 24 26 26 22 27 53 87 99 95 95 96 98 100 97 97 101 104 104 85 51 33 33 33 35 36 38 41 41 45 59 67 75 88 93 90 90 89 86 87 97 104 102 101 101 100 101 101 100 101 100 100 101 100 100 101 103 104 105 104 96 85 82 85 91 96 97 98 98 98 100 97 89 80 72 65 60
64 59 55 50 46 42 40 38 36 34 32 29 27 25 25 25 25 23 24 25 24 26 28 22 28 55 88 105 99 94 98 96 95 98 99 100 102 101 105 103 82 64 52 38 35 41 43 41 40 52 80 99 100 98 99 102 101 101 104 102 102 104 102 100 100 99 101 101 100 100 100 100 101 101 101 103 105 106 103 94 83 75 73 74 78 80 79 77 77 78 78 74 66 59 54 50 47
63 58 55 50 45 40 39 39 38 35 32 28 26 25 25 25 24 23 25 27 29 30 23 30 61 80 81 93 102 97 93 93 94 98 100 99 101 102 101 102 101 97 85 63 46 42 43 44 41 43 59 82 99 103 99 100 101 100 103 104 102 101 100 100 99 97 98 101 100 100 101 100 101 101 100 98 96 92 85 77 71 68 67 65 64 60 56 53 53 54 54 52 48 44 42 41 41
Wind_Speed
77 77 76 75 75 74 73 74 73 72 72 72 73 74 71 70 71 72 70 68 67 67 67 66 66 67 68 68 68 67 66 66 66 67 67 68 70 71 72 71 71 70 69 68 66 65 65 65 67 68 68 67 66 66 67 67 68 69 69 70 72 73 74 74 74 74 74 74 74 75 74 72 71 70 71 72 72 73 75 77 77 77 77 76 76 76 74 71 68 66 64 61 58 55 51 47 47
75 75 76 75 75 75 74 75 73 72 73 73 76 76 73 73 73 72 71 70 69 69 70 69 69 69 70 71 72 72 70 69 69 69 69 70 71 71 72 72 72 71 70 69 68 67 66 67 68 70 70 69 68 68 68 69 69 70 71 72 73 75 75 76 75 75 75 75 75 75 75 74 73 73 73 74 75 76 78 78 77 77 76 76 75 73 71 68 65 64 61 58 56 52 48 47 48
74 74 75 75 76 76 75 75 74 74 74 76 78 77 75 76 75 74 72 72 71 72 72 71 71 71 71 72 73 73 72 72 71 71 71 71 71 71 72 72 71 71 70 70 69 68 68 69 70 71 72 71 70 70 70 71 71 72 73 74 75 76 76 76 76 76 76 75 75 75 75 75 75 75 76 77 77 78 78 78 77 76 75 74 72 69 66 64 62 60 57 55 53 50 47 47 46
75 75 75 75 76 76 76 76 75 75 76 79 80 78 77 77 76 75 74 73 73 73 72 72 72 73 73 73 73 74 74 73 73 72 72 71 71 71 72 72 72 71 71 70 69 69 69 71 72 72 72 72 72 72 72 73 74 74 75 75 75 76 77 77 77 76 76 76 76 76 76 76 76 76 77 78 78 78 78 77 76 74 73 71 68 65 62 59 57 56 55 54 51 48 47 46 45
76 76 76 76 76 76 76 75 75 76 79 81 81 79 79 78 76 75 74 74 74 73 73 73 74 74 75 75 75 74 74 74 74 73 73 72 71 71 72 72 73 73 72 71 71 71 72 73 73 73 73 73 74 74 74 75 76 76 76 76 76 76 77 77 76 76 76 76 77 77 77 77 77 78 78 79 78 78 77 76 74 71 69 67 63 60 57 55 54 54 54 51 49 47 46 44 43
77 77 77 77 77 77 76 75 76 78 81 82 81 80 79 78 77 75 74 74 74 74 74 74 75 75 75 76 76 76 76 75 75 74 73 73 72 72 72 73 74 74 73 73 73 74 74 74 73 73 73 74 75 75 76 76 77 76 76 77 77 77 77 76 76 76 76 77 77 78 78 78 78 78 78 78 77 76 75 73 71 67 64 62 60 57 53 52 54 53 51 48 47 46 44 41 39
78 78 77 77 77 77 76 76 77 80 82 82 81 80 79 78 77 75 74 73 74 74 74 75 75 75 76 76 77 77 77 76 76 75 74 74 74 73 74 74 75 74 74 74 75 75 75 74 73 73 74 74 75 76 77 77 77 77 77 77 77 77 76 76 76 76 76 77 77 78 78 78 78 77 76 75 74 73 72 70 67 64 60 59 56 52 50 52 53 50 48 47 46 44 41 38 35
78 78 79 78 78 78 77 77 79 81 82 82 82 81 80 78 76 75 74 73 74 74 74 74 75 75 76 76 76 77 77 76 76 75 75 75 75 75 76 76 75 74 75 76 76 76 75 74 74 73 74 74 76 77 77 78 78 78 77 77 77 77 76 76 76 76 76 77 77 77 77 77 76 75 73 72 71 70 69 67 65 61 57 54 51 49 50 52 50 47 46 45 43 40 37 35 33
77 78 79 79 79 79 78 79 81 82 83 82 82 82 80 78 76 75 74 74 73 73 73 74 74 74 75 75 76 76 75 75 75 75 75 75 76 77 77 77 76 76 77 77 77 77 76 75 74 74 74 75 76 77 77 77 77 77 77 77 76 76 76 76 76 76 76 76 76 75 75 74 73 71 70 69 68 67 66 65 63 59 53 49 48 49 51 49 47 45 43 40 38 37 35 33 33
75 76 77 78 78 79 80 81 82 83 84 84 84 83 80 78 76 76 75 75 74 74 74 74 73 74 74 74 74 74 73 73 74 74 75 76 77 77 78 78 77 78 79 78 78 77 76 75 75 74 75 75 76 76 77 76 76 76 76 76 75 75 75 75 75 75 74 74 73 72 72 70 69 68 67 67 66 66 65 63 60 55 49 47 48 49 48 46 45 43 39 37 36 35 35 34 36
71 72 74 75 76 77 79 82 83 84 85 85 85 83 80 79 77 77 77 76 75 75 75 75 74 74 75 74 74 73 73 73 73 74 74 75 77 77 78 78 78 78 78 78 77 76 76 75 75 75 75 75 76 76 75 75 75 75 74 74 74 74 74 74 73 73 72 71 70 69 68 67 67 67 66 66 65 64 61 58 54 50 47 47 47 47 45 44 43 39 36 34 34 35 37 38 37
69 69 70 71 72 75 78 81 83 84 85 86 85 83 82 80 79 78 78 78 77 77 77 76 76 76 75 74 74 73 73 73 73 73 73 74 75 77 77 77 77 77 76 76 75 74 74 74 74 74 75 75 74 74 74 74 73 73 72 72 72 71 71 71 70 69 69 68 68 67 66 66 66 66 65 64 61 58 55 53 51 49 48 46 46 44 43 43 40 35 33 33 35 37 39 38 32
70 70 69 69 70 72 76 80 82 83 84 85 85 84 83 82 81 80 80 79 79 79 78 77 77 76 76 75 75 74 74 73 73 73 73 74 75 76 76 76 75 75 74 73 73 72 72 72 73 73 73 73 73 72 72 72 71 70 70 70 69 69 68 68 68 67 67 66 66 65 65 64 64 63 60 58 55 52 51 51 50 49 48 46 45 44 43 41 37 32 31 32 35 37 36 32 28
71 70 70 70 71 72 75 78 79 81 82 83 84 82 82 82 82 82 81 81 80 80 80 79 78 77 77 76 76 75 74 74 74 74 74 75 75 75 75 75 74 74 73 72 72 71 72 72 72 72 72 72 72 71 71 70 70 69 69 68 68 67 67 66 66 66 65 65 64 64 62 60 58 56 53 51 50 49 50 50 49 48 47 46 45 44 42 39 34 30 29 30 32 32 30 28 28
71 71 71 72 73 75 77 78 78 78 79 80 80 80 80 81 82 82 82 82 82 82 81 80 79 78 78 78 77 76 75 75 75 76 76 76 76 75 75 75 74 74 73 72 72 72 72 72 72 72 72 72 71 71 71 70 70 69 68 68 67 66 66 65 65 65 64 63 62 61 58 55 52 50 50 50 48 47 48 49 49 48 48 47 47 45 41 36 32 29 27 28 29 29 28 29 30
72 73 73 73 75 77 79 79 79 79 78 78 77 77 77 77 79 79 80 81 82 82 82 81 80 79 79 79 77 77 77 77 77 77 77 77 77 76 76 75 74 74 74 73 73 73 73 73 73 72 72 72 72 72 71 70 69 69 68 67 66 65 65 65 64 64 63 62 60 57 54 52 51 51 51 50 48 47 48 48 49 49 48 47 46 43 39 35 31 28 27 27 28 29 30 31 32
73 73 74 75 76 79 80 80 80 80 79 78 77 75 75 74 75 76 77 79 80 81 81 81 80 80 80 79 78 78 78 78 78 78 78 78 77 77 76 75 75 75 74 74 74 74 74 74 74 73 73 73 73 72 71 70 69 68 67 66 65 65 64 64 63 62 61 59 57 55 53 53 53 51 50 48 47 47 47 49 49 49 47 46 44 42 39 36 32 29 28 27 29 30 32 33 34
74 74 75 76 78 80 81 80 80 80 79 78 77 76 75 74 73 73 74 76 78 79 80 80 79 80 80 80 79 79 79 79 79 79 78 78 78 77 76 75 75 75 75 75 75 75 75 74 74 73 73 73 72 71 69 68 67 66 65 65 64 64 64 63 62 60 59 57 55 53 53 53 52 50 48 46 46 47 48 49 48 47 46 45 43 41 39 36 33 30 29 29 30 33 34 35 35
75 75 75 77 80 81 81 81 80 80 78 77 77 76 75 74 73 73 74 74 75 76 78 78 78 79 79 79 80 80 80 80 80 79 78 78 78 77 77 76 76 77 77 76 76 76 75 74 73 73 72 72 70 69 68 66 65 64 64 64 64 63 63 61 60 58 57 55 53 52 52 52 51 49 47 46 47 48 48 48 47 47 46 44 42 41 40 38 34 31 30 30 32 35 36 37 37
75 75 75 78 81 81 81 80 80 79 78 77 76 75 74 74 73 73 73 73 73 73 74 75 76 76 76 77 78 78 79 80 80 78 78 79 78 77 77 77 77 77 77 77 76 75 74 73 72 72 71 70 69 67 66 64 63 63 62 63 62 61 60 59 57 56 55 53 52 53 52 51 49 48 47 47 48 48 48 48 48 48 45 42 41 40 40 38 35 33 31 31 34 36 37 37 37
74 74 76 79 80 80 80 79 79 80 77 76 76 74 73 73 72 72 72 71 71 70 70 71 71 71 72 72 74 74 76 77 77 75 75 76 75 74 74 74 74 74 74 73 73 72 71 71 70 70 69 68 66 65 63 62 61 61 61 61 60 59 57 56 55 54 53 52 52 52 51 50 48 47 48 48 48 48 48 48 48 47 44 41 41 40 39 38 36 34 33 34 37 38 38 36 36
73 74 76 78 79 79 80 78 79 79 77 76 75 73 72 71 71 70 69 69 68 67 67 66 66 66 67 68 69 70 71 72 71 71 70 69 69 68 68 68 68 69 69 69 68 68 67 66 66 66 65 64 63 61 60 60 59 59 59 58 57 56 54 53 52 51 51 51 51 51 50 48 48 48 48 48 48 48 49 49 48 45 43 42 42 42 40 39 37 36 37 38 39 39 36 34 35
73 74 76 78 78 79 78 77 78 77 76 75 73 70 69 69 68 66 65 65 64 63 63 62 62 62 63 64 66 67 68 68 67 66 64 63 61 60 60 60 60 62 61 61 62 62 62 63 64 62 61 60 59 58 57 56 56 57 56 55 54 53 52 51 50 49 49 49 49 49 48 48 49 49 48 48 49 48 48 47 45 43 43 43 42 41 41 40 39 39 40 40 40 38 33 31 32
73 75 77 77 77 78 77 76 76 75 74 72 69 67 66 65 64 62 61 61 60 60 60 61 61 61 62 62 64 65 66 65 63 62 60 57 54 53 51 49 49 50 49 49 49 48 49 52 54 55 54 54 53 52 52 53 54 54 54 53 52 51 50 49 49 48 48 48 48 48 48 48 48 48 48 48 48 47 46 45 43 42 42 42 41 41 40 40 40 40 41 41 39 35 31 29 28
74 75 75 74 75 76 74 73 73 72 71 69 66 64 65 63 61 60 59 59 59 59 60 60 60 60 61 62 63 64 64 62 60 58 55 53 52 51 48 46 44 43 43 42 40 40 41 43 45 45 46 46 47 50 51 53 54 54 53 52 51 50 49 48 48 47 47 47 47 47 47 47 47 47 47 47 45 44 43 43 42 42 41 41 42 41 41 41 41 41 41 40 36 31 27 25 24
72 73 72 71 71 72 71 69 70 69 67 66 63 63 63 61 59 58 58 57 57 58 58 59 60 61 62 62 63 63 61 59 57 55 53 52 51 49 46 47 47 45 44 42 40 43 47 49 48 47 48 51 53 56 56 56 55 54 53 52 51 50 49 48 47 46 45 45 45 45 46 46 46 46 45 44 42 42 41 41 41 41 41 41 42 42 42 42 41 41 39 35 30 26 23 21 22
68 68 67 66 67 68 67 66 67 66 65 64 62 62 62 59 56 56 56 56 56 57 58 60 61 62 63 62 61 60 58 57 56 54 52 50 49 47 45 47 50 51 51 50 50 52 55 57 58 59 61 62 60 58 56 55 54 53 52 51 50 49 47 46 45 45 44 44 44 44 44 45 44 44 42 41 40 40 39 39 39 38 39 40 40 41 41 41 40 38 35 30 24 21 19 19 21
62 62 62 62 62 63 64 64 65 64 63 64 62 61 60 57 55 56 56 56 57 59 60 61 62 62 61 60 58 57 56 57 56 52 49 48 46 45 45 47 51 54 56 57 58 59 60 62 64 66 65 63 60 56 53 52 51 51 50 49 48 47 46 44 43 43 43 43 42 42 43 42 42 40 39 38 37 37 36 35 35 36 37 37 37 38 39 38 37 33 29 24 19 17 17 18 20
58 58 59 59 59 61 62 63 64 62 63 64 60 58 58 56 56 57 57 58 59 60 62 63 62 61 59 58 57 56 56 57 53 48 46 45 44 45 46 48 52 55 57 57 58 60 61 63 64 64 62 60 57 54 52 51 50 49 48 47 46 45 43 43 42 42 41 41 41 40 40 39 37 35 34 33 33 32 31 32 33 34 34 33 33 34 34 33 31 26 22 19 16 16 18 20 22
56 56 57 58 58 59 62 62 62 61 63 63 58 56 57 57 57 57 58 59 61 62 63 63 61 59 58 57 57 56 56 55 51 46 43 41 40 44 47 48 51 54 55 56 57 56 56 56 57 57 56 56 55 53 52 51 50 49 47 45 44 43 42 41 41 40 39 39 38 36 34 32 31 30 29 29 28 28 29 31 31 31 30 29 29 29 29 28 25 22 19 19 19 21 23 25 28
55 55 56 57 57 60 62 61 61 61 62 61 57 54 55 57 58 57 59 61 62 63 63 62 60 59 58 58 57 57 56 53 48 43 41 38 34 37 40 39 40 43 43 44 46 46 46 47 48 51 52 53 52 51 50 49 48 47 45 43 42 41 40 38 37 36 36 34 32 30 29 28 27 27 26 25 25 26 27 28 28 27 26 26 26 26 26 25 23 22 22 23 25 26 28 29 31
55 55 56 57 58 61 62 61 61 62 62 61 57 53 54 57 58 57 59 62 63 63 63 62 61 59 58 58 58 58 55 51 47 43 39 35 32 35 37 33 32 35 34 32 36 39 39 41 43 47 49 48 48 47 46 45 44 42 41 40 39 37 36 35 33 32 31 29 27 27 27 27 26 25 24 23 23 25 26 26 25 24 24 24 24 24 25 24 24 24 25 26 27 28 28 29 29
56 55 56 57 58 61 61 61 61 62 62 61 57 54 54 57 59 58 60 63 63 63 63 62 61 59 58 58 59 58 55 51 47 43 39 35 34 33 34 39 37 36 34 29 29 33 34 35 37 40 43 44 45 44 42 41 39 38 37 36 34 34 33 32 30 29 28 27 27 27 27 26 25 24 23 23 24 24 25 24 23 22 22 23 22 22 23 24 25 26 27 27 28 28 28 28 28
56 55 56 56 57 60 61 61 61 61 61 61 58 55 54 56 59 60 61 64 64 64 64 63 61 59 59 59 60 59 55 51 48 47 44 44 45 40 36 42 45 43 41 32 26 28 32 35 34 34 37 38 38 38 37 36 35 34 33 32 31 31 30 29 29 28 28 28 29 28 27 25 25 24 24 25 25 25 24 23 22 21 21 22 22 22 23 23 24 26 26 26 26 26 25 25 25
54 53 54 55 56 58 60 61 61 60 61 60 58 55 54 56 60 62 63 65 65 65 65 63 62 60 59 59 60 58 54 52 52 52 52 51 52 52 49 50 52 53 51 42 35 36 38 38 35 34 33 32 31 30 29 29 29 30 30 30 29 28 28 29 29 29 29 30 29 27 26 25 25 26 27 27 26 26 25 23 22 21 20 22 23 22 22 22 22 23 23 23 23 22 21 22 25
54 53 53 54 56 58 61 62 61 60 60 59 58 56 55 56 60 62 64 64 65 66 65 63 61 59 59 59 57 56 52 52 54 53 54 53 52 54 55 56 55 54 56 53 49 47 46 42 40 40 37 33 32 30 27 27 27 27 28 29 28 29 30 30 30 30 30 29 27 26 25 26 28 28 28 28 27 27 26 24 23 21 21 22 23 23 23 22 21 21 21 20 20 19 20 23 24
55 54 54 56 57 59 61 62 62 60 58 58 59 56 54 55 58 61 62 62 64 65 63 61 59 58 59 58 55 53 51 51 52 51 53 53 52 53 54 55 54 52 55 58 56 53 54 54 52 49 45 40 38 35 33 31 30 29 29 30 31 32 32 31 31 30 29 28 27 27 27 29 30 30 29 29 28 28 27 25 24 23 22 23 23 23 23 22 22 21 20 19 18 18 20 20 19
56 56 56 57 58 60 61 61 62 60 56 57 58 55 53 54 57 60 61 60 62 62 60 57 57 57 57 55 53 51 50 49 49 50 52 53 53 54 55 56 57 57 57 57 57 56 58 62 62 59 54 47 42 39 37 36 36 35 33 32 32 33 33 32 32 31 30 29 30 30 31 31 31 31 31 31 30 30 29 27 25 25 24 25 26 26 25 24 23 22 21 19 17 16 16 14 15
60 59 57 57 58 60 60 60 61 59 54 56 57 52 52 55 56 59 59 58 60 59 58 55 54 54 53 52 52 50 49 48 48 50 52 53 52 53 55 58 60 63 63 59 58 58 58 61 62 61 58 51 45 41 40 40 40 39 38 36 34 34 34 34 34 33 32 32 33 33 33 33 32 32 32 32 32 31 30 29 27 27 26 27 28 28 28 27 26 24 22 19 17 14 11 11 15
61 60 59 59 59 59 60 60 59 56 54 55 54 49 51 55 55 57 57 55 57 57 55 53 50 49 48 48 50 49 48 47 48 49 50 50 50 49 52 57 61 65 66 63 60 58 58 59 59 58 57 53 49 46 45 44 43 42 42 40 38 36 36 37 37 36 35 34 34 34 34 33 33 33 33 33 33 32 31 30 29 29 28 28 29 29 29 28 27 25 22 19 17 13 10 12 16
62 61 61 61 60 59 60 60 56 54 54 54 52 48 50 53 53 54 54 53 55 55 52 48 44 43 44 46 47 48 47 46 46 47 47 46 46 46 47 53 62 66 66 65 63 60 58 58 58 57 57 55 53 52 50 47 45 44 43 41 40 39 40 40 40 39 38 35 34 34 34 34 34 34 35 34 34 33 33 32 32 31 30 30 30 30 29 28 27 25 22 20 18 15 14 16 18
61 61 62 62 61 59 60 60 55 53 54 53 49 47 48 50 51 51 51 51 52 51 47 43 40 40 41 44 47 49 48 48 47 45 44 43 43 44 44 50 62 68 67 67 66 63 61 60 60 59 58 56 54 53 52 50 48 47 46 44 43 42 43 43 43 42 40 37 36 35 35 34 35 35 35 35 34 34 34 34 33 32 32 31 31 30 29 28 27 25 23 21 19 17 18 20 20
59 60 60 59 59 58 58 57 54 52 52 49 47 45 44 47 49 48 47 48 49 47 43 39 38 39 41 45 48 49 49 49 47 44 42 42 43 43 43 48 59 67 68 67 66 65 63 61 60 58 57 56 53 52 51 50 49 48 47 46 45 45 46 45 45 44 43 41 38 37 37 36 36 36 35 35 35 34 34 33 33 32 32 32 31 30 29 28 26 25 24 22 20 20 21 22 22
58 58 57 56 57 56 54 53 52 51 48 45 44 42 41 45 47 45 45 46 46 45 40 37 38 40 42 45 47 47 48 48 45 43 43 43 43 43 44 47 54 62 66 67 66 65 65 64 62 59 57 55 53 51 50 49 48 48 47 46 45 45 45 45 45 45 45 43 41 40 39 39 38 36 35 35 34 33 32 32 32 32 32 32 32 31 29 27 25 25 24 22 21 22 23 24 24
56 54 53 52 52 52 50 49 49 48 44 41 41 38 39 44 44 42 43 43 43 43 40 37 39 41 42 45 46 46 46 46 45 44 44 43 42 42 45 47 49 53 58 62 64 65 65 65 64 62 58 55 52 50 49 49 49 49 49 48 46 45 43 42 43 44 45 44 43 42 40 39 38 37 36 34 33 32 31 32 33 33 33 32 32 30 27 26 25 24 23 23 23 23 24 25 25
52 50 49 48 48 48 47 45 46 44 40 39 38 36 38 43 42 40 41 41 41 41 39 37 38 40 42 43 45 45 45 44 44 44 44 43 42 43 45 46 46 48 51 55 59 61 64 65 63 61 58 54 51 50 50 51 52 52 51 50 48 46 44 41 40 41 42 43 43 42 41 39 38 37 36 34 33 32 31 32 32 31 31 30 29 27 26 25 24 24 23 23 24 25 25 25 24
48 45 45 45 44 45 43 42 42 40 37 38 38 34 37 42 41 39 40 40 40 40 38 37 37 39 40 41 42 43 43 42 42 42 42 41 41 43 44 44 45 47 48 50 54 57 61 63 62 60 58 56 53 51 52 53 54 55 55 54 52 50 49 46 43 41 40 40 41 40 40 39 38 37 36 35 33 32 32 32 31 30 30 29 28 27 26 25 25 24 24 24 25 26 25 24 23
44 43 42 42 42 41 39 38 38 36 35 39 38 34 36 40 40 39 40 39 39 39 37 36 36 37 38 39 40 40 40 39 39 39 39 40 41 41 41 42 44 47 47 48 50 53 57 61 62 62 60 59 58 57 55 54 55 56 56 56 54 54 53 51 49 47 44 43 43 42 41 39 38 37 37 36 35 34 34 33 32 31 30 29 29 28 28 27 27 26 26 25 26 26 26 24 23
42 41 40 39 39 37 37 36 35 34 36 40 37 32 33 39 40 38 38 38 37 37 36 35 35 35 36 37 37 37 37 36 35 36 36 37 38 38 39 42 44 46 48 49 50 51 53 56 59 61 62 62 61 61 59 58 56 55 54 53 53 54 54 53 52 51 50 49 48 46 44 42 40 39 39 38 38 37 36 36 35 33 32 31 30 30 30 30 29 28 27 26 26 26 26 25 23
40 39 37 36 35 35 35 35 34 33 36 38 34 30 32 37 39 37 36 36 35 35 35 34 33 33 35 35 34 33 32 31 31 32 33 34 35 37 40 43 45 47 49 50 51 52 51 50 50 53 57 59 60 60 60 58 56 54 52 51 51 51 51 51 51 51 51 50 50 48 46 44 43 42 42 41 40 39 38 38 37 35 34 33 33 33 33 32 31 28 27 26 26 26 25 25 24
38 36 34 33 33 33 34 33 32 33 35 35 32 28 30 35 37 35 35 35 34 34 33 31 29 29 29 27 26 27 28 27 27 29 31 33 35 39 42 42 45 48 49 50 50 52 52 49 46 48 51 54 56 57 57 57 55 53 51 50 49 49 49 49 49 49 49 49 49 48 46 45 45 44 44 43 42 40 39 39 38 37 36 35 35 35 35 34 32 29 27 26 25 25 25 25 24
35 32 31 32 32 32 32 31 30 31 32 32 29 26 29 34 36 34 34 34 33 32 29 26 26 27 27 25 22 20 17 16 18 21 27 33 36 39 40 40 43 46 49 49 49 50 50 49 49 50 51 52 54 55 55 55 55 54 52 50 49 48 47 47 47 46 46 45 45 44 44 44 43 43 43 42 40 39 38 38 38 37 36 36 36 36 36 34 32 30 28 26 25 25 25 25 24
31 30 31 32 32 30 30 29 29 29 30 29 27 26 29 33 34 34 33 32 31 28 25 25 27 28 26 21 15 9 7 11 14 18 25 34 37 39 40 40 41 44 47 48 48 48 49 48 49 51 51 50 51 52 53 53 54 53 52 49 47 46 45 44 43 42 42 41 41 40 40 39 39 40 40 39 39 38 37 37 37 37 37 36 35 35 34 33 31 29 28 27 26 24 24 25 26
31 31 32 32 31 30 30 29 28 28 27 27 27 26 29 32 33 33 32 29 27 24 23 25 26 25 23 20 19 16 15 19 20 21 27 34 39 39 41 43 44 44 45 47 47 47 48 48 48 49 49 49 48 49 50 52 53 51 49 46 44 42 40 39 39 38 39 39 39 39 38 37 37 38 38 38 38 38 37 37 37 37 36 34 33 32 31 29 28 27 27 26 25 25 26 29 30
32 32 32 31 30 30 29 28 28 27 26 26 27 27 29 31 32 31 30 26 23 22 23 24 24 24 24 26 30 28 25 23 23 27 34 40 44 44 43 46 48 47 46 47 47 47 47 46 45 45 45 45 44 45 47 49 50 49 47 44 42 41 40 39 38 38 39 39 38 38 37 37 36 37 37 37 37 36 36 36 36 35 34 32 30 29 28 27 26 27 27 27 28 30 33 34 34
32 32 31 31 30 29 28 28 27 26 25 26 27 27 28 31 31 30 27 24 24 25 24 24 24 25 25 27 30 31 30 29 30 34 39 45 50 50 47 46 46 46 46 46 46 46 45 43 39 37 37 35 33 33 35 38 40 40 40 40 40 40 40 39 38 38 37 37 36 36 36 36 37 36 37 37 37 37 37 37 38 37 36 34 32 31 31 30 31 31 32 34 35 36 36 36 36
31 31 31 31 29 28 27 27 26 26 26 26 27 28 30 31 30 28 25 25 27 28 26 26 28 28 28 29 29 26 24 25 29 33 38 43 45 45 45 45 42 41 42 43 44 44 44 42 40 37 36 32 28 27 32 35 35 34 36 37 37 37 37 37 37 35 34 35 35 36 37 37 38 38 39 39 39 39 39 38 39 38 37 36 35 34 34 34 35 36 37 37 37 37 38 39 39
30 30 31 30 29 28 27 26 26 26 26 27 28 30 31 31 30 27 26 27 29 30 29 31 33 31 31 32 29 26 27 30 33 36 41 45 44 42 44 44 41 39 39 40 42 43 43 43 43 44 43 41 38 36 36 36 34 33 34 35 35 35 34 34 35 35 36 38 38 38 38 39 39 39 39 40 40 39 38 38 37 37 37 37 37 37 37 37 37 38 38 39 40 41 42 42 41
Wind_Direction
255 256 257 258 259 259 260 260 261 261 261 260 260 260 260 260 261 261 262 264 265 266 266 266 266 267 268 269 270 270 270 270 270 270 270 271 272 272 273 274 275 276 277 278 279 280 280 281 282 283 284 285 286 287 288 289 290 290 291 292 292 293 293 293 294 295 296 297 298 299 300 301 302 302 302 303 303 303 303 305 306 308 309 309 310 311 311 312 314 314 314 315 315 316 316 314 314
255 256 257 258 259 259 260 260 260 260 260 260 260 260 261 260 261 262 262 264 265 266 266 266 266 267 268 268 269 269 269 269 269 269 270 271 271 272 273 274 275 275 276 278 279 280 280 281 281 282 282 284 285 286 287 287 288 288 289 290 290 291 292 293 293 294 295 296 297 298 299 300 301 302 302 302 302 302 303 304 306 307 308 309 310 311 312 313 314 314 314 314 315 316 315 314 315
255 256 256 257 258 259 259 260 260 259 259 259 259 260 261 261 261 262 263 264 265 266 266 267 267 266 266 267 267 268 268 268 268 268 269 270 271 272 273 274 275 275 276 276 278 279 280 280 280 281 282 283 284 285 285 286 286 287 287 288 289 290 291 292 293 293 294 295 297 298 299 300 300 301 301 302 302 303 303 304 305 307 308 309 310 311 312 314 314 314 314 315 315 315 314 315 316
255 256 257 257 258 258 258 259 259 259 258 259 259 260 260 261 262 263 264 264 265 265 266 267 266 266 266 266 266 266 267 267 268 268 269 269 270 271 272 273 274 275 275 276 277 278 279 279 280 280 281 282 283 284 284 285 285 286 287 288 289 290 290 291 292 293 294 295 296 297 298 299 300 300 301 301 302 302 302 303 305 307 308 309 310 312 313 314 314 314 314 315 315 315 315 316 317
255 255 256 257 257 258 258 258 258 258 258 259 260 260 260 261 262 262 263 264 265 265 266 266 266 266 266 265 265 265 265 266 267 267 268 269 270 271 271 273 273 274 275 276 276 277 278 279 280 280 281 282 283 283 284 284 285 286 286 287 288 289 290 290 292 292 293 295 296 297 298 299 299 300 300 301 301 301 302 303 305 307 308 309 310 312 313 314 314 315 315 315 315 315 316 317 317
254 255 255 256 257 257 258 258 258 258 258 259 259 260 260 261 261 262 263 263 264 265 265 265 265 265 264 264 264 264 264 265 266 267 268 269 269 270 270 271 272 273 274 275 276 277 278 279 280 280 281 281 282 283 284 284 285 285 286 287 288 288 289 290 291 292 293 294 296 297 297 298 299 299 300 300 300 301 302 303 305 307 308 309 311 312 313 314 315 315 316 316 315 315 316 317 318
254 255 255 256 256 257 257 258 258 258 259 259 259 260 260 260 261 262 262 263 264 264 264 265 265 264 264 264 264 264 264 265 266 267 268 268 269 269 269 269 270 272 274 275 275 276 277 278 279 280 281 281 282 283 283 284 285 285 286 287 287 288 289 290 291 292 293 294 295 296 297 297 298 299 299 300 301 301 302 304 305 307 308 310 311 312 312 314 316 316 317 317 316 316 316 318 319
254 255 255 255 256 256 256 257 257 258 259 259 260 260 260 260 261 262 262 263 263 263 264 264 264 264 265 265 265 265 265 266 266 267 268 268 269 269 269 269 271 272 273 274 275 276 277 278 279 280 281 281 282 282 283 284 284 285 286 287 288 288 289 290 291 292 293 294 294 295 296 297 298 298 299 300 301 302 303 304 305 307 309 310 311 311 313 315 316 316 317 316 316 316 316 318 318
255 255 255 255 255 256 256 256 256 257 258 259 259 259 259 260 261 262 262 262 262 262 263 263 264 265 265 266 266 266 266 267 267 268 268 269 269 270 270 271 272 273 273 274 275 276 278 278 279 280 280 281 281 282 282 283 284 285 286 287 288 288 289 290 291 292 293 293 294 294 295 296 297 298 299 300 301 302 303 304 305 307 309 310 310 311 313 315 315 316 317 317 316 315 316 316 317
256 256 255 255 255 256 256 256 256 257 258 258 258 258 259 260 261 261 261 261 261 262 262 263 263 264 265 266 267 267 268 268 268 268 269 269 270 270 271 272 273 273 274 275 276 277 278 279 279 280 280 280 281 281 282 283 284 285 286 287 287 288 289 290 291 291 292 292 293 294 295 297 298 299 300 301 301 302 303 304 306 308 309 309 309 311 313 315 316 317 318 318 316 314 313 313 315
257 257 257 257 257 257 257 257 257 257 257 257 258 259 260 260 260 260 261 261 261 261 262 262 263 263 264 265 266 267 268 268 268 268 269 269 270 270 271 272 272 273 274 275 276 277 278 279 279 279 280 280 281 281 282 283 284 285 286 287 288 289 289 290 290 291 291 292 293 295 296 297 299 300 300 301 302 303 304 305 306 308 308 309 310 311 313 315 316 318 320 318 313 311 309 310 313
257 258 258 259 259 258 258 258 258 258 258 258 259 259 260 260 260 260 260 260 261 261 261 262 262 263 264 265 266 267 267 268 268 269 269 269 270 270 270 271 272 273 274 275 276 277 278 278 278 279 279 279 280 281 282 283 284 285 286 287 288 289 289 290 290 291 292 293 294 296 297 298 299 300 300 301 302 304 304 305 306 307 308 310 311 312 314 316 317 320 320 314 310 309 308 309 313
258 258 259 259 259 259 259 258 258 259 259 259 260 260 260 260 259 259 259 260 260 260 261 261 262 263 264 265 265 266 267 268 269 269 269 269 269 270 271 272 272 273 274 275 276 277 277 277 278 278 279 279 280 281 282 283 285 286 287 288 288 289 289 290 290 291 292 294 295 296 297 298 299 300 300 302 304 305 304 305 306 307 309 311 311 312 315 317 318 319 316 312 310 309 308 309 312
259 259 259 259 259 259 259 259 259 259 259 260 260 261 261 260 260 260 260 260 260 260 261 261 262 262 263 264 264 265 267 267 268 268 268 269 269 270 271 272 273 274 274 275 276 276 277 277 278 278 279 280 281 282 284 285 286 287 287 288 289 289 289 289 290 291 293 294 295 296 298 299 299 300 301 302 304 304 303 305 306 308 311 311 312 312 314 316 316 316 312 311 312 311 307 307 310
260 260 260 259 259 259 259 259 259 260 260 261 261 261 261 261 261 261 260 260 260 260 260 260 261 261 262 262 263 264 265 266 266 267 267 268 269 270 271 272 273 274 275 276 276 276 277 277 278 279 280 281 282 283 284 285 286 287 287 288 288 289 289 289 290 292 293 294 295 297 298 298 299 300 301 302 302 301 303 305 307 309 311 311 311 311 313 314 313 311 308 310 315 310 304 303 305
260 260 260 260 259 259 259 259 260 260 261 262 262 262 262 262 262 262 262 261 261 260 260 260 260 261 261 262 262 263 264 264 265 266 266 267 268 269 271 272 273 275 276 276 277 277 277 278 278 279 280 281 282 282 283 284 285 286 287 287 288 288 288 289 290 291 292 293 295 296 296 296 297 299 300 301 300 300 303 305 307 308 310 310 310 309 310 311 309 307 303 307 314 310 302 300 302
260 260 260 260 260 260 260 260 261 262 262 263 263 263 264 264 264 264 263 262 261 261 260 260 260 260 261 261 262 262 263 263 264 265 266 267 268 269 270 272 273 275 275 276 277 277 277 278 279 280 280 280 281 282 283 284 285 285 286 286 286 287 288 289 290 291 292 293 294 294 294 295 297 298 299 299 299 301 303 304 306 307 308 309 308 307 308 308 307 304 300 303 311 309 303 300 301
259 260 260 260 260 260 261 261 262 262 263 264 264 264 264 264 264 264 264 263 262 261 261 261 261 260 261 261 261 262 262 263 264 264 266 267 268 269 271 272 273 273 274 275 276 277 278 278 279 279 280 280 281 282 283 283 284 285 285 285 285 286 287 288 290 290 291 292 292 292 293 295 297 298 298 298 299 301 303 304 305 306 308 308 307 306 307 307 305 303 301 303 309 308 304 302 302
259 260 260 260 260 261 261 262 263 263 264 264 265 265 265 265 264 264 264 263 263 262 261 261 261 261 261 261 262 262 263 263 263 264 266 267 268 269 270 271 272 272 273 274 275 276 277 278 279 279 279 280 281 282 282 283 284 284 284 284 284 286 287 288 289 290 290 291 291 291 293 295 296 296 296 297 299 301 302 303 304 306 308 306 305 305 306 307 305 303 300 301 305 305 303 302 301
260 260 261 261 261 262 262 263 263 264 264 264 265 265 265 264 264 264 263 263 263 263 262 261 261 261 261 262 262 262 263 263 264 265 266 267 268 269 270 271 271 272 274 274 275 276 277 277 278 278 279 280 281 282 282 283 283 283 283 283 284 286 287 288 288 288 289 289 290 291 293 294 295 295 295 297 299 300 302 303 305 307 306 305 305 306 305 304 303 301 299 298 301 303 302 300 297
261 261 261 262 262 263 263 263 264 264 264 265 265 265 265 264 264 263 263 263 263 262 262 262 261 261 261 261 261 262 262 262 263 264 265 267 268 269 270 271 273 274 274 275 276 276 276 277 278 278 279 280 281 281 282 282 282 282 282 283 285 286 287 287 287 287 288 289 289 291 293 293 293 293 295 297 298 300 302 304 305 306 304 304 304 303 301 299 299 299 298 297 299 301 300 296 292
261 262 262 263 263 264 264 264 265 265 265 265 265 265 265 264 263 262 262 262 262 262 262 262 261 260 260 260 261 261 261 262 263 264 265 266 268 270 272 273 275 275 275 276 277 277 277 277 278 278 279 280 280 281 282 282 282 282 283 284 285 286 286 286 286 287 288 289 290 291 292 291 291 293 295 297 298 301 303 304 305 304 303 302 300 299 297 294 294 296 297 298 298 299 298 294 290
262 262 263 263 264 264 265 265 265 266 266 265 265 265 264 263 262 261 261 260 261 261 261 260 260 259 259 259 259 260 260 261 262 263 265 267 269 272 275 277 277 277 279 279 279 278 278 277 276 277 278 279 280 281 282 283 282 282 283 284 285 285 285 285 286 287 288 289 290 291 290 290 291 293 295 297 299 301 302 303 303 302 302 301 299 298 295 292 292 293 296 298 299 298 295 292 291
262 262 263 263 264 265 265 265 265 265 265 264 263 262 261 260 259 259 259 259 259 258 258 258 258 258 258 258 258 259 259 260 262 263 265 267 268 269 272 277 279 279 281 281 281 281 280 278 276 277 279 280 281 283 284 283 283 284 284 284 284 284 285 285 287 288 289 290 290 290 290 290 291 293 295 297 299 300 300 301 301 302 302 301 300 298 296 294 294 295 297 298 298 296 294 292 292
262 262 262 263 264 264 264 264 264 263 263 262 261 260 259 258 258 258 257 257 257 257 256 256 256 256 256 256 257 258 259 260 262 263 264 266 266 266 266 267 269 273 275 277 280 284 284 282 281 282 281 282 284 285 286 285 284 284 284 284 284 284 285 286 287 288 289 289 289 289 289 290 292 294 296 297 298 298 299 299 300 301 301 300 299 297 296 295 295 296 297 297 297 296 294 293 294
261 262 262 262 262 262 262 262 261 261 260 260 259 258 257 257 257 257 256 256 256 256 255 255 254 254 254 254 256 258 260 261 261 262 263 264 266 267 266 263 263 263 267 273 276 280 283 284 284 286 285 285 286 286 285 284 283 283 283 283 283 284 286 287 287 288 287 288 288 288 289 291 293 295 296 297 297 297 297 298 299 300 300 299 297 296 295 294 295 297 296 296 295 295 294 294 294
260 260 260 259 259 260 260 259 258 258 257 257 256 256 256 256 256 256 255 255 255 254 254 253 253 253 253 255 257 259 261 261 260 261 263 265 267 268 268 266 266 265 266 270 273 276 281 283 284 286 287 287 286 284 283 282 282 282 282 282 283 284 285 285 285 285 285 286 286 288 289 292 293 295 296 296 297 297 298 299 300 300 300 298 296 295 295 295 296 296 295 295 296 296 294 291 288
258 257 257 257 257 258 258 257 256 256 256 256 256 256 257 256 255 255 255 254 254 253 253 253 252 253 255 256 258 259 260 260 261 262 265 268 270 271 271 271 271 272 272 273 275 277 279 281 283 284 285 285 284 284 283 281 281 281 281 282 283 283 283 283 282 283 283 285 286 288 290 292 293 295 296 297 299 299 300 302 303 303 302 300 299 298 297 296 296 296 296 297 298 294 287 280 278
255 255 255 255 255 256 256 255 255 256 256 255 255 256 258 257 256 256 256 255 255 254 254 253 253 254 256 257 257 258 258 259 261 263 267 270 274 276 275 274 274 275 276 278 278 279 279 280 280 281 282 282 282 282 281 280 279 280 280 280 281 281 280 280 280 281 283 284 286 288 290 292 294 296 298 300 302 303 305 307 307 306 305 305 303 301 299 298 298 298 298 295 291 284 279 277 277
254 253 253 254 254 255 255 255 256 256 256 256 255 256 258 258 257 256 257 256 256 255 255 255 255 256 256 256 257 257 258 259 261 263 267 272 278 280 280 280 280 280 281 280 279 278 277 278 278 278 279 279 279 278 278 277 277 278 278 278 278 277 277 277 279 281 282 284 286 288 290 293 296 299 300 303 305 307 310 313 311 309 308 308 307 305 304 303 301 299 292 284 278 275 274 276 278
253 252 252 253 253 254 255 256 256 256 256 257 256 256 258 258 257 257 257 257 256 256 256 257 257 257 257 257 257 257 258 259 261 263 267 271 271 271 277 282 282 283 283 280 277 275 275 277 278 277 275 274 274 273 274 274 275 275 275 274 275 275 275 277 278 279 280 282 285 288 292 295 298 299 301 303 306 310 315 317 317 314 313 312 312 313 312 308 302 295 287 281 278 277 277 279 281
253 252 252 253 254 255 255 256 257 257 257 258 257 256 257 258 258 257 258 258 258 257 258 258 258 257 258 258 258 259 259 260 262 263 266 268 261 257 261 258 259 267 270 270 271 276 282 282 280 276 272 270 269 269 270 270 271 271 272 272 273 273 274 275 276 277 278 280 285 289 293 295 295 296 299 301 304 310 315 318 322 323 322 321 321 320 317 312 304 297 293 290 288 288 289 290 292
253 252 253 253 254 256 257 256 257 258 259 259 257 256 257 259 260 259 259 259 259 258 258 259 259 259 259 259 260 260 260 260 261 261 258 252 245 243 244 239 238 245 248 251 263 278 285 281 278 275 271 270 269 269 269 269 270 270 270 271 272 273 273 273 274 275 277 281 287 290 292 291 291 292 296 298 302 308 312 318 326 329 328 330 331 326 322 318 310 303 301 300 299 299 300 301 303
253 254 255 255 256 258 259 258 258 258 259 259 258 257 257 259 260 259 258 258 258 258 258 258 258 258 258 258 259 259 259 259 257 253 246 236 229 223 225 233 236 236 235 232 243 262 267 263 264 269 271 272 272 271 271 270 269 269 268 270 271 271 271 271 273 274 277 282 287 287 286 287 288 292 295 297 300 305 309 315 322 326 328 333 336 331 326 322 315 309 308 308 307 308 311 314 315
256 256 256 257 257 259 260 259 258 258 258 259 258 257 256 257 258 258 257 257 258 258 257 257 257 257 257 257 257 258 258 257 254 249 244 239 235 229 225 229 234 237 237 231 230 241 250 252 253 259 268 274 273 271 271 269 266 266 266 268 267 265 266 268 271 273 277 282 284 282 282 284 289 292 294 297 299 302 305 309 315 322 328 333 336 335 333 330 323 318 317 317 318 321 325 325 320
258 257 257 258 258 258 260 259 258 257 258 259 259 258 257 257 258 258 258 258 258 258 257 257 257 256 256 255 256 257 256 254 251 249 246 242 237 233 229 230 233 238 238 234 232 236 243 249 252 257 266 271 271 268 266 266 264 263 263 263 261 260 263 266 268 272 278 281 279 277 279 283 287 290 294 297 300 302 304 308 313 319 325 330 332 334 336 336 333 330 330 330 333 336 333 325 321
260 259 257 257 258 258 259 260 259 258 258 260 260 258 258 257 258 258 258 258 258 258 258 257 257 255 255 254 254 254 252 250 249 247 245 242 236 230 227 228 232 236 237 234 234 237 241 246 251 256 262 265 266 264 261 261 261 260 261 261 260 260 262 264 267 272 277 276 275 276 278 281 285 289 293 298 300 302 303 306 310 314 319 324 326 329 332 335 335 336 339 342 345 339 330 326 331
260 259 258 257 258 259 259 260 260 259 259 260 260 259 259 258 257 257 256 256 257 257 257 256 255 253 253 254 253 250 248 246 245 243 242 240 236 231 226 225 229 233 236 234 234 237 240 244 248 252 256 259 259 259 260 262 261 259 260 262 263 262 262 263 267 271 272 272 274 276 277 280 284 289 294 298 301 302 302 304 307 309 312 315 318 322 324 327 329 333 339 344 344 336 332 342 360
259 259 259 258 258 259 260 260 261 260 260 260 260 260 260 259 257 256 256 256 256 256 255 253 252 252 253 252 250 246 243 241 240 240 240 239 237 233 227 225 227 230 232 232 233 237 241 244 248 249 251 252 252 255 261 265 264 261 260 262 264 263 261 263 267 269 270 271 274 275 276 280 285 290 294 297 300 302 302 303 305 307 309 311 314 317 318 320 322 327 333 337 335 331 332 348 1
258 259 259 259 259 260 261 261 261 261 261 261 261 260 260 259 256 255 255 255 254 253 252 252 251 251 251 250 247 243 241 239 238 238 239 240 239 237 230 225 225 226 228 229 232 238 242 244 247 249 249 249 249 254 260 263 262 261 261 263 264 263 262 264 267 269 271 273 274 275 278 282 287 290 293 295 298 301 302 303 305 307 309 311 314 315 316 317 318 322 326 327 327 321 312 321 334
258 259 259 260 260 260 262 262 261 262 263 263 262 259 258 257 255 254 254 253 252 250 251 251 250 249 248 245 242 239 236 235 235 236 237 238 238 237 233 226 223 223 225 228 232 237 241 243 246 250 250 251 252 255 259 260 260 260 261 263 264 265 265 266 269 270 271 273 274 276 280 284 287 289 291 293 296 299 301 303 304 307 309 311 313 315 316 317 316 318 319 319 319 310 298 303 314
258 258 259 260 261 261 263 264 263 263 263 264 263 259 257 256 254 253 253 251 250 250 250 249 247 245 243 241 239 236 234 232 232 233 234 235 235 234 231 226 222 222 224 228 231 236 239 242 245 249 251 253 255 257 259 260 260 260 262 264 266 267 268 268 269 271 271 272 274 277 282 285 286 287 288 291 295 298 300 303 304 306 309 311 313 315 315 315 314 313 312 312 312 305 297 299 307
259 259 259 260 261 262 263 264 264 264 263 263 262 258 255 253 252 252 251 250 251 251 249 245 242 240 238 238 238 237 236 233 231 232 232 232 232 231 229 225 222 222 225 228 231 235 238 241 244 247 250 253 255 257 258 260 261 262 263 265 267 268 269 269 268 269 270 270 273 277 281 284 284 286 288 291 294 296 299 302 303 305 308 311 313 313 313 311 309 308 307 306 305 301 297 298 304
258 258 259 260 261 262 263 264 264 263 261 260 259 256 252 252 251 251 251 250 251 251 247 242 238 236 235 236 238 238 237 235 231 230 230 230 230 230 228 225 223 223 226 230 232 236 239 242 245 247 249 251 254 256 257 259 261 262 263 265 267 268 269 269 268 268 269 270 273 277 279 282 283 285 288 291 293 296 299 301 302 304 307 310 311 312 310 306 304 303 302 301 300 298 296 296 301
257 259 259 260 261 262 262 261 261 260 259 256 254 252 251 251 251 250 250 250 250 250 246 241 238 236 236 237 238 238 238 236 233 229 229 229 229 229 228 227 226 225 228 231 233 236 240 243 245 247 249 251 253 255 257 259 260 261 262 263 265 266 267 269 268 267 268 270 273 276 278 280 282 284 287 290 293 295 297 299 301 304 306 308 308 309 307 303 302 301 298 298 298 298 296 295 299
257 258 259 259 259 259 259 258 258 258 257 255 252 248 248 250 249 248 249 248 248 248 246 241 238 237 236 237 239 240 240 238 235 232 231 229 228 228 229 229 228 228 229 230 232 235 239 242 244 247 250 251 253 255 257 260 261 261 261 262 263 264 266 269 270 269 268 269 272 275 278 280 282 285 287 288 290 292 294 296 299 302 304 305 305 306 305 302 302 300 297 297 298 298 298 298 300
256 256 256 257 257 257 257 256 255 255 254 253 249 244 245 249 248 246 247 246 245 246 245 241 238 237 237 238 239 241 241 240 238 236 234 232 230 229 230 230 229 230 231 231 231 233 236 240 242 245 248 250 250 252 255 259 261 262 262 262 263 264 265 267 270 270 270 271 274 276 278 281 283 285 285 285 286 288 290 293 296 298 299 301 303 304 303 302 302 300 299 298 298 298 299 301 303
255 254 254 255 255 255 254 253 253 252 251 250 246 241 243 248 248 245 244 244 243 243 242 239 237 236 235 237 239 241 242 242 241 239 237 234 233 232 233 233 232 233 234 234 233 233 235 238 241 243 245 247 248 249 252 255 257 260 262 264 265 267 267 268 269 271 272 273 275 277 279 281 282 283 282 282 283 285 287 290 292 294 295 297 299 300 300 300 299 299 299 298 297 298 300 302 306
252 252 252 253 253 253 252 251 249 248 249 249 246 241 243 247 247 245 244 243 242 241 240 238 236 234 233 234 236 239 241 242 241 240 238 236 236 236 236 235 235 235 235 235 236 236 236 238 243 247 248 249 249 250 252 254 255 257 260 264 266 268 269 270 270 271 272 273 275 277 278 279 279 279 280 280 282 284 286 288 289 290 291 294 296 297 297 297 297 297 298 297 296 297 299 302 306
251 252 253 253 253 252 251 249 248 247 248 249 247 242 242 245 247 245 243 242 240 239 239 237 235 234 233 235 237 239 242 243 242 241 240 238 238 236 235 234 235 236 236 236 238 239 239 240 244 251 253 253 253 254 255 258 260 261 262 265 267 268 268 269 270 271 272 273 274 275 276 276 277 278 279 280 282 284 286 287 287 287 289 291 293 294 295 295 295 295 294 293 294 294 296 299 303
252 253 253 253 252 251 250 249 248 247 249 250 248 244 242 242 244 242 240 239 237 236 236 235 234 232 232 235 238 241 244 247 248 250 248 242 238 237 236 235 235 236 237 237 238 239 241 240 241 247 252 254 256 258 260 263 266 267 268 268 268 268 268 269 270 271 271 272 272 273 273 274 276 278 280 282 283 285 286 285 286 286 287 290 291 292 293 293 292 291 290 290 291 291 292 295 298
252 253 253 251 250 249 249 248 248 248 249 250 248 243 239 239 240 239 237 236 235 234 232 228 225 222 220 221 226 235 249 265 278 279 266 254 246 242 241 239 238 237 237 238 238 240 243 243 242 245 249 254 257 260 263 265 267 269 270 270 270 269 269 269 270 270 270 271 271 272 273 274 277 279 281 282 284 284 284 284 285 286 287 289 291 291 291 290 290 289 288 287 287 287 288 291 293
250 250 249 248 246 246 246 245 246 246 248 249 245 238 235 236 237 236 234 233 233 230 223 217 217 217 216 211 207 215 239 253 269 277 270 265 259 250 245 244 243 242 240 241 241 242 244 245 245 247 251 255 258 261 264 266 267 269 270 270 270 269 268 268 268 268 269 270 271 272 274 276 278 279 281 282 283 284 283 283 284 285 286 288 289 289 289 289 288 287 286 284 284 284 284 287 291
245 245 245 245 244 243 242 241 241 242 243 244 240 234 231 231 233 233 232 231 228 222 213 211 213 212 205 186 167 169 192 212 226 238 249 259 261 256 251 249 249 248 245 244 244 244 245 246 247 249 251 256 260 263 266 267 268 269 269 268 267 264 262 263 264 266 268 269 271 274 276 278 279 280 281 282 283 283 283 282 283 284 285 287 287 287 288 288 286 284 282 281 281 282 285 288 292
242 243 243 244 244 243 241 240 239 238 238 238 235 229 226 228 229 229 228 224 217 210 204 203 205 200 189 173 166 172 188 203 215 225 234 244 250 254 253 250 248 248 246 244 244 244 245 247 249 254 257 261 266 269 270 270 269 267 265 263 260 258 258 259 263 266 269 272 274 276 277 277 278 278 278 278 279 280 280 280 282 283 284 284 283 283 285 284 282 281 280 280 281 283 287 290 292
242 242 243 242 242 241 241 240 238 235 233 232 230 224 222 224 225 224 222 212 203 199 194 192 193 186 176 169 168 174 185 200 213 222 228 236 243 247 249 249 249 248 246 245 245 246 246 246 248 253 259 262 263 263 259 258 261 263 261 259 258 258 259 262 266 269 272 275 276 277 277 276 276 275 274 273 274 275 276 277 279 281 281 280 279 279 280 280 280 280 279 280 282 284 288 291 294
244 244 244 243 242 241 240 239 238 235 229 227 224 218 217 219 219 218 213 202 196 191 184 183 184 178 170 165 165 172 185 202 216 222 225 231 239 246 249 251 251 249 248 247 246 247 246 243 238 234 237 239 236 234 235 238 247 256 261 262 262 262 261 262 264 267 270 274 275 275 275 275 273 272 271 271 271 273 275 277 279 280 280 279 278 278 278 279 279 279 279 280 283 286 290 293 294
243 244 245 245 243 241 239 237 235 232 227 224 221 215 215 215 213 210 202 197 195 186 179 181 179 172 165 162 166 181 196 206 212 217 223 228 235 243 248 250 250 249 250 249 247 246 245 243 238 231 228 229 226 225 230 238 245 251 255 260 262 262 261 261 262 265 269 272 273 274 274 273 272 271 271 271 272 274 276 277 278 279 279 279 279 279 279 279 279 279 280 282 284 288 291 294 295